Timestamp[UTC];2m Lufttemperatur [degC] (tas);Stations-Luftdruck [Pa] (ps);relative Luftfeuchtigkeit [%] (hurs);spezifische Luftfeuchtigkeit [kg/kg] (huss);Niederschlagsmenge [mm] (pr);Windgeschwindigkeit in 2m [m/s] (sfcWind);Windrichtung [deg];maximale Windgeschwindigkeit [m/s] (wsgsmax);u-Windkomponente [m/s] (uas);v-Windkomponente [m/s] (vas);Sonneneinstrahlung [W/m2];Blitzrate [n];Blitzentfernung [km];Bodenfeuchte in 5cm Tiefe [vol%];Bodenfeuchte in 15cm Tiefe [vol%];Bodenfeuchte in 30cm Tiefe [vol%];Bodenfeuchte in 60cm Tiefe [vol%];Bodentemperatur in 5cm Tiefe [degC];Bodentemperatur in 15cm Tiefe [degC];Bodentemperatur in 30cm Tiefe [degC];Bodentemperatur in 60cm Tiefe [degC];Matrixpotential in 30cm Tiefe [kPa];Bodenfeuchte aus CRNS [vol%] (mrso);Neutronen Anzahl [N/h]
2023-07-01 00:00:00;16,9;100190;80;0,0096;0,0;1,0;208;2,4;-0,46;-0,84;0;0;nan;22,9;24,9;26,9;15,1;18,2;18,0;18,0;17,3;-9,8;20,5;1539
2023-07-01 01:00:00;16,8;100097;80;0,0096;0,0;1,2;212;2,4;-0,64;-1,03;0;0;nan;22,8;24,8;26,9;15,1;18,1;18,0;18,0;17,4;-9,7;20,7;1534
2023-07-01 02:00:00;16,9;100007;78;0,0094;0,0;1,7;215;3,8;-0,96;-1,38;0;0;nan;22,8;24,8;26,9;15,1;18,1;18,0;18,0;17,4;-9,7;20,6;1536
2023-07-01 03:00:00;17,3;99962;77;0,0095;0,0;2,7;230;5,3;-2,02;-1,71;1;0;nan;22,7;24,8;26,8;15,1;18,0;18,0;17,9;17,4;-9,7;20,6;1536
2023-07-01 04:00:00;17,6;99882;75;0,0094;0,0;3,4;237;6,8;-2,85;-1,86;21;0;nan;22,6;24,7;26,8;15,1;17,9;17,9;17,9;17,4;-9,7;21,1;1526
2023-07-01 05:00:00;17,2;99843;79;0,0097;0,0;4,1;241;8,3;-3,63;-1,99;30;0;nan;22,5;24,6;26,7;15,1;17,9;17,9;17,8;17,3;-9,7;21,5;1519
2023-07-01 06:00:00;16,0;99856;88;0,01;0,0;3,6;240;7,6;-3,07;-1,76;38;0;nan;22,5;24,6;26,7;15,1;17,8;17,9;17,8;17,3;-9,7;21,6;1516
2023-07-01 07:00:00;14,9;99850;97;0,0103;1,18;2,8;226;5,9;-1,99;-1,9;70;0;nan;22,4;24,5;26,6;15,2;17,8;17,9;17,7;17,3;-9,7;21,3;1522
2023-07-01 08:00:00;15,4;99840;99;0,0108;0,82;3,0;227;6,5;-2,17;-2,06;93;0;nan;22,4;24,5;26,6;15,2;17,8;17,8;17,7;17,3;-9,7;21,5;1519
2023-07-01 09:00:00;15,7;99812;99;0,0111;0,16;3,4;232;6,6;-2,66;-2,06;87;0;nan;22,5;24,5;26,6;15,2;17,9;17,8;17,7;17,3;-9,7;21,8;1512
2023-07-01 10:00:00;16,3;99760;100;0,0116;0,51;2,8;229;5,5;-2,14;-1,87;124;0;nan;22,5;24,6;26,6;15,2;17,9;17,8;17,7;17,3;-9,6;22,2;1505
2023-07-01 11:00:00;16,8;99724;100;0,012;0,43;3,3;236;7,1;-2,73;-1,84;162;0;nan;22,7;24,7;26,6;15,2;18,0;17,8;17,7;17,3;-9,6;22,8;1495
2023-07-01 12:00:00;17,3;99713;100;0,0123;0,0;3,4;238;6,9;-2,91;-1,83;159;0;nan;22,8;24,7;26,7;15,2;18,0;17,8;17,7;17,3;-9,7;22,6;1498
2023-07-01 13:00:00;18,8;99670;98;0,0133;0,0;3,6;234;7,2;-2,89;-2,12;261;0;nan;22,9;24,8;26,7;15,2;18,2;17,8;17,8;17,3;-9,6;22,9;1492
2023-07-01 14:00:00;18,3;99677;97;0,0128;1,16;3,8;269;7,9;-3,55;-0,03;140;0;nan;23,2;25,0;26,8;15,2;18,3;17,7;17,8;17,3;-9,6;23,2;1487
2023-07-01 15:00:00;17,5;99740;100;0,0125;1,7;3,4;279;7,2;-3,38;0,54;149;0;nan;24,2;25,6;27,1;15,2;18,4;17,8;17,9;17,3;-9,6;22,9;1493
2023-07-01 16:00:00;17,9;99755;99;0,0127;1,08;2,8;276;5,2;-2,77;0,28;168;0;nan;25,7;26,6;27,5;15,2;18,4;17,8;17,9;17,3;-9,6;22,7;1496
2023-07-01 17:00:00;18,0;99815;94;0,0121;0,0;2,1;291;4,7;-1,92;0,72;104;0;nan;25,8;26,9;27,9;15,2;18,4;17,8;17,9;17,3;-9,6;22,5;1500
2023-07-01 18:00:00;17,5;99840;92;0,0115;0,0;2,0;268;3,9;-2,03;-0,09;56;0;nan;25,7;26,8;28,0;15,2;18,3;17,8;18,0;17,3;-9,5;22,4;1502
2023-07-01 19:00:00;17,1;99870;93;0,0114;0,0;1,9;254;3,4;-1,85;-0,53;12;0;nan;25,5;26,8;28,1;15,2;18,3;17,8;18,0;17,3;-9,4;22,5;1501
2023-07-01 20:00:00;16,9;99933;93;0,0112;0,0;2,2;246;3,6;-1,98;-0,86;1;0;nan;25,3;26,7;28,1;15,2;18,2;17,8;17,9;17,3;-9,4;22,4;1502
2023-07-01 21:00:00;17,0;99984;92;0,0111;0,0;2,5;253;4,5;-2,36;-0,7;0;0;nan;25,1;26,6;28,1;15,2;18,1;17,8;17,9;17,3;-9,3;22,2;1505
2023-07-01 22:00:00;16,6;99998;92;0,0108;0,0;2,2;249;3,9;-2,06;-0,78;0;0;nan;25,0;26,5;28,0;15,2;18,0;17,8;17,9;17,2;-9,3;22,3;1504
2023-07-01 23:00:00;16,4;100000;93;0,0108;0,0;2,0;236;3,2;-1,69;-1,13;0;0;nan;24,8;26,4;28,0;15,2;18,0;17,8;17,8;17,2;-9,3;22,1;1508
2023-07-02 00:00:00;16,4;99980;94;0,011;0,0;2,5;240;4,9;-2,2;-1,25;0;0;nan;24,7;26,3;28,0;15,2;17,9;17,8;17,8;17,2;-9,3;22,2;1506
2023-07-02 01:00:00;16,4;99977;93;0,0109;0,0;2,9;248;5,6;-2,72;-1,08;0;0;nan;24,6;26,3;28,0;15,2;17,9;17,8;17,8;17,2;-9,2;22,1;1507
2023-07-02 02:00:00;15,8;100020;93;0,0104;0,02;3,1;258;5,8;-3,07;-0,62;0;0;nan;24,5;26,2;27,9;15,2;17,8;17,8;17,7;17,2;-9,2;22,2;1506
2023-07-02 03:00:00;14,6;100052;92;0,0096;0,0;2,1;262;4,1;-2,09;-0,31;2;0;nan;24,4;26,1;27,9;15,2;17,7;17,7;17,7;17,2;-9,2;22,1;1507
2023-07-02 04:00:00;14,2;100125;90;0,0091;0,0;2,1;256;3,5;-2,08;-0,51;43;0;nan;24,3;26,1;27,9;15,2;17,6;17,7;17,6;17,2;-9,2;21,9;1511
2023-07-02 05:00:00;15,0;100162;91;0,0097;0,0;2,6;253;4,5;-2,45;-0,77;162;0;nan;24,2;26,0;27,8;15,2;17,5;17,7;17,5;17,2;-9,2;21,5;1519
2023-07-02 06:00:00;15,9;100196;85;0,0096;0,0;3,3;268;6,1;-3,32;-0,12;217;0;nan;24,1;26,0;27,8;15,2;17,5;17,7;17,5;17,2;-9,2;21,3;1521
2023-07-02 07:00:00;16,4;100260;79;0,0091;0,0;3,8;274;7,6;-3,81;0,24;316;0;nan;24,0;25,9;27,8;15,2;17,6;17,7;17,5;17,2;-9,2;21,7;1515
2023-07-02 08:00:00;17,0;100293;72;0,0086;0,0;4,3;281;8,7;-4,17;0,84;404;0;nan;23,9;25,8;27,7;15,2;17,5;17,6;17,5;17,2;-9,2;21,4;1520
2023-07-02 09:00:00;17,1;100342;69;0,0083;0,0;4,8;282;9,1;-4,68;1,02;342;0;nan;23,7;25,6;27,6;15,2;17,5;17,6;17,5;17,2;-9,2;21,4;1520
2023-07-02 10:00:00;18,0;100372;64;0,0082;0,0;5,2;273;10,6;-5,18;0,29;532;0;nan;23,5;25,5;27,4;15,2;17,5;17,6;17,4;17,2;-9,2;21,3;1523
2023-07-02 11:00:00;18,5;100382;62;0,0082;0,0;4,7;273;9,0;-4,67;0,24;549;0;nan;23,3;25,3;27,3;15,2;17,7;17,6;17,4;17,2;-9,2;21,0;1527
2023-07-02 12:00:00;19,2;100400;62;0,0086;0,0;5,3;266;10,0;-5,32;-0,38;746;0;nan;23,0;25,1;27,1;15,2;17,9;17,6;17,5;17,2;-9,2;21,4;1521
2023-07-02 13:00:00;19,4;100427;60;0,0084;0,0;5,5;262;10,1;-5,45;-0,81;611;0;nan;22,8;24,9;26,9;15,2;18,0;17,6;17,6;17,2;-9,2;20,8;1533
2023-07-02 14:00:00;20,0;100434;57;0,0083;0,0;4,5;272;9,3;-4,48;0,13;575;0;nan;22,6;24,7;26,8;15,2;18,2;17,6;17,6;17,2;-9,2;20,8;1532
2023-07-02 15:00:00;20,1;100427;55;0,008;0,0;4,8;278;9,8;-4,7;0,67;482;0;nan;22,4;24,5;26,6;15,2;18,2;17,6;17,7;17,2;-9,2;20,7;1535
2023-07-02 16:00:00;19,2;100422;56;0,0078;0,0;4,1;292;8,3;-3,79;1,53;282;0;nan;22,2;24,4;26,5;15,2;18,1;17,6;17,7;17,2;-9,3;20,6;1536
2023-07-02 17:00:00;18,8;100418;56;0,0076;0,0;3,0;301;6,8;-2,59;1,56;224;0;nan;22,1;24,3;26,4;15,2;18,0;17,6;17,7;17,2;-9,2;20,5;1539
2023-07-02 18:00:00;18,0;100400;60;0,0077;0,0;1,4;298;3,7;-1,21;0,64;99;0;nan;22,0;24,2;26,3;15,2;17,9;17,6;17,7;17,1;-9,2;20,3;1543
2023-07-02 19:00:00;17,2;100370;65;0,0079;0,0;0,7;279;1,6;-0,74;0,11;18;0;nan;22,0;24,2;26,3;15,2;17,8;17,6;17,7;17,2;-9,2;20,3;1542
2023-07-02 20:00:00;16,3;100417;69;0,008;0,0;1,2;266;2,2;-1,21;-0,09;0;0;nan;22,0;24,1;26,3;15,2;17,7;17,6;17,6;17,1;-9,3;20,3;1543
2023-07-02 21:00:00;15,7;100430;72;0,008;0,0;1,8;254;3,0;-1,69;-0,48;0;0;nan;22,0;24,1;26,3;15,2;17,6;17,6;17,6;17,1;-9,2;20,4;1540
2023-07-02 22:00:00;15,6;100413;75;0,0083;0,0;2,1;256;3,7;-2,04;-0,5;0;0;nan;21,9;24,1;26,2;15,2;17,5;17,6;17,5;17,1;-9,3;20,2;1544
2023-07-02 23:00:00;15,0;100375;78;0,0082;0,0;2,4;252;4,7;-2,3;-0,76;0;0;nan;21,9;24,1;26,2;15,2;17,4;17,6;17,5;17,1;-9,2;19,8;1552
2023-07-03 00:00:00;14,9;100350;76;0,008;0,0;2,8;250;5,2;-2,58;-0,96;0;0;nan;21,9;24,0;26,2;15,2;17,3;17,6;17,4;17,1;-9,3;19,7;1554
2023-07-03 01:00:00;14,6;100335;74;0,0077;0,0;3,1;250;6,4;-2,88;-1,06;0;0;nan;21,9;24,0;26,2;15,2;17,2;17,5;17,3;17,1;-9,2;19,7;1554
2023-07-03 02:00:00;14,4;100318;75;0,0076;0,0;3,3;252;6,6;-3,12;-1,04;0;0;nan;21,8;24,0;26,1;15,2;17,1;17,5;17,2;17,1;-9,3;19,9;1550
2023-07-03 03:00:00;14,2;100280;76;0,0077;0,0;3,4;250;6,5;-3,18;-1,16;0;0;nan;21,8;24,0;26,1;15,2;17,0;17,5;17,2;17,1;-9,2;19,7;1555
2023-07-03 04:00:00;14,1;100275;82;0,0082;0,0;3,5;252;6,1;-3,36;-1,06;40;0;nan;21,8;23,9;26,1;15,2;16,9;17,4;17,1;17,1;-9,2;19,6;1556
2023-07-03 05:00:00;14,2;100297;85;0,0086;0,0;3,6;253;6,9;-3,45;-1,07;122;0;nan;21,7;23,9;26,0;15,2;16,9;17,4;17,1;17,1;-9,3;19,8;1553
2023-07-03 06:00:00;14,8;100330;87;0,0091;0,0;4,5;255;8,7;-4,31;-1,17;206;0;nan;21,7;23,8;26,0;15,2;16,9;17,4;17,0;17,1;-9,3;19,6;1557
2023-07-03 07:00:00;15,4;100378;85;0,0092;0,0;4,0;255;7,4;-3,86;-1,07;258;0;nan;21,6;23,8;25,9;15,2;17,0;17,3;17,0;17,1;-9,3;19,5;1559
2023-07-03 08:00:00;15,8;100420;81;0,0091;0,0;4,2;251;7,6;-3,96;-1,35;189;0;nan;21,5;23,7;25,9;15,2;17,0;17,3;17,0;17,1;-9,3;19,7;1555
2023-07-03 09:00:00;15,7;100453;82;0,0091;0,0;3,3;251;6,0;-3,11;-1,09;243;0;nan;21,5;23,6;25,8;15,2;17,1;17,3;17,0;17,1;-9,3;19,4;1561
2023-07-03 10:00:00;15,9;100466;80;0,009;0,0;3,6;248;6,9;-3,32;-1,35;207;0;nan;21,4;23,6;25,7;15,2;17,2;17,2;17,0;17,1;-9,3;19,3;1564
2023-07-03 11:00:00;17,8;100450;73;0,0092;0,0;4,5;255;8,3;-4,34;-1,19;506;0;nan;21,3;23,5;25,6;15,2;17,4;17,2;17,1;17,1;-9,3;19,2;1565
2023-07-03 12:00:00;18,1;100450;68;0,0087;0,0;4,0;259;8,1;-3,92;-0,76;356;0;nan;21,2;23,3;25,5;15,2;17,5;17,2;17,1;17,0;-9,3;19,1;1568
2023-07-03 13:00:00;18,8;100433;62;0,0083;0,0;4,9;269;9,6;-4,87;-0,09;369;0;nan;21,0;23,2;25,4;15,2;17,6;17,2;17,2;17,0;-9,4;19,4;1561
2023-07-03 14:00:00;18,4;100447;59;0,0077;0,0;5,0;261;9,1;-4,95;-0,83;195;0;nan;20,9;23,1;25,3;15,2;17,6;17,2;17,2;17,0;-9,4;19,1;1568
2023-07-03 15:00:00;18,2;100448;60;0,0078;0,0;4,5;264;8,1;-4,47;-0,44;142;0;nan;20,8;23,0;25,2;15,2;17,5;17,3;17,2;17,0;-9,4;19,3;1563
2023-07-03 16:00:00;18,2;100434;61;0,0079;0,0;3,9;259;7,2;-3,85;-0,73;101;0;nan;20,8;23,0;25,1;15,2;17,4;17,3;17,2;17,0;-9,4;19,4;1561
2023-07-03 17:00:00;18,0;100387;62;0,0079;0,0;3,2;257;6,5;-3,13;-0,72;69;0;nan;20,7;22,9;25,1;15,2;17,3;17,3;17,2;17,0;-9,4;19,5;1558
2023-07-03 18:00:00;17,7;100346;64;0,0081;0,0;2,0;247;3,8;-1,8;-0,75;33;0;nan;20,7;22,9;25,0;15,2;17,3;17,3;17,2;17,0;-9,4;19,7;1555
2023-07-03 19:00:00;17,7;100320;64;0,0081;0,0;2,0;241;4,3;-1,76;-0,96;8;0;nan;20,6;22,8;25,0;15,2;17,2;17,2;17,2;17,0;-9,4;19,8;1553
2023-07-03 20:00:00;18,3;100340;59;0,0077;0,0;4,2;249;8,3;-3,88;-1,48;0;0;nan;20,6;22,8;25,0;15,2;17,2;17,2;17,1;17,0;-9,4;19,8;1553
2023-07-03 21:00:00;17,7;100386;61;0,0076;0,0;4,9;256;9,0;-4,78;-1,18;0;0;nan;20,6;22,8;25,0;15,2;17,1;17,2;17,1;17,0;-9,4;19,7;1554
2023-07-03 22:00:00;16,7;100420;67;0,0079;0,0;5,2;260;11,2;-5,16;-0,86;0;0;nan;20,6;22,7;24,9;15,2;17,0;17,2;17,0;16,9;-9,4;20,1;1546
2023-07-03 23:00:00;12,7;100518;90;0,0082;0,26;3,1;277;6,3;-2,96;0,39;0;0;nan;20,5;22,7;24,9;15,2;16,8;17,2;17,0;17,0;-9,4;20,3;1543
2023-07-04 00:00:00;12,6;100520;93;0,0084;0,84;2,4;265;4,8;-2,35;-0,2;0;0;nan;20,5;22,7;24,9;15,2;16,8;17,2;16,9;16,9;-9,4;20,1;1546
2023-07-04 01:00:00;12,4;100486;94;0,0084;0,78;2,9;244;5,1;-2,58;-1,23;0;0;nan;20,6;22,7;24,9;15,2;16,7;17,1;16,8;16,9;-9,4;20,1;1546
2023-07-04 02:00:00;12,2;100497;96;0,0085;1,51;1,7;255;3,5;-1,59;-0,43;0;0;nan;20,8;22,9;24,9;15,2;16,6;17,1;16,8;16,9;-9,4;20,0;1549
2023-07-04 03:00:00;12,3;100477;97;0,0086;0,97;2,2;236;4,1;-1,84;-1,22;1;0;nan;21,7;23,3;24,9;15,2;16,5;17,1;16,7;16,9;-9,4;20,3;1543
2023-07-04 04:00:00;12,5;100510;96;0,0087;0,0;2,6;234;4,4;-2,1;-1,53;18;0;nan;22,5;23,7;25,0;15,2;16,4;17,0;16,6;16,9;-9,5;20,0;1548
2023-07-04 05:00:00;13,2;100546;99;0,0093;0,0;1,9;232;3,4;-1,47;-1,13;134;0;nan;22,7;23,9;25,2;15,2;16,4;17,0;16,6;16,9;-9,4;19,9;1550
2023-07-04 06:00:00;14,6;100568;98;0,0101;0,0;3,0;242;6,4;-2,67;-1,4;234;0;nan;22,7;24,0;25,3;15,2;16,5;17,0;16,6;16,9;-9,4;20,1;1546
2023-07-04 07:00:00;15,3;100600;94;0,0101;0,0;3,5;250;7,0;-3,31;-1,21;288;0;nan;22,7;24,0;25,4;15,2;16,7;17,0;16,6;16,9;-9,4;20,0;1549
2023-07-04 08:00:00;16,6;100600;82;0,0096;0,0;4,0;252;7,7;-3,84;-1,27;444;0;nan;22,6;24,0;25,5;15,2;16,8;16,9;16,6;16,9;-9,4;19,6;1556
2023-07-04 09:00:00;17,5;100612;72;0,0089;0,0;4,7;249;8,5;-4,34;-1,7;505;0;nan;22,4;23,9;25,5;15,2;16,9;16,9;16,7;16,9;-9,4;19,7;1556
2023-07-04 10:00:00;18,8;100638;63;0,0085;0,0;5,0;261;8,6;-4,9;-0,78;655;0;nan;22,2;23,8;25,4;15,2;17,1;16,9;16,8;16,8;-9,4;19,8;1553
2023-07-04 11:00:00;19,4;100650;59;0,0082;0,0;4,8;261;8,7;-4,73;-0,75;606;0;nan;22,0;23,6;25,3;15,2;17,3;16,9;16,9;16,8;-9,5;20,0;1549
2023-07-04 12:00:00;20,0;100670;61;0,0088;0,0;4,5;254;9,1;-4,36;-1,27;698;0;nan;21,8;23,5;25,2;15,2;17,5;16,9;17,0;16,8;-9,5;19,7;1556
2023-07-04 13:00:00;20,0;100665;61;0,0088;0,0;4,4;255;8,2;-4,21;-1,13;484;0;nan;21,6;23,3;25,1;15,2;17,7;16,9;17,0;16,8;-9,5;19,8;1552
2023-07-04 14:00:00;20,3;100652;59;0,0087;0,0;4,1;254;7,7;-3,91;-1,15;403;0;nan;21,4;23,2;25,0;15,2;17,8;17,0;17,2;16,8;-9,5;19,8;1553
2023-07-04 15:00:00;20,0;100627;58;0,0084;0,0;3,9;258;6,8;-3,81;-0,79;237;0;nan;21,3;23,1;24,9;15,2;17,8;17,0;17,2;16,8;-9,5;19,7;1554
2023-07-04 16:00:00;20,0;100592;60;0,0086;0,0;3,0;259;5,4;-2,94;-0,59;201;0;nan;21,2;23,0;24,8;15,2;17,8;17,0;17,3;16,8;-9,6;19,8;1552
2023-07-04 17:00:00;19,7;100538;64;0,0091;0,0;1,2;260;2,2;-1,14;-0,2;123;0;nan;21,1;22,9;24,8;15,2;17,8;17,1;17,3;16,8;-9,6;19,7;1555
2023-07-04 18:00:00;19,3;100512;68;0,0095;0,0;0,7;31;1,2;0,33;0,56;36;0;nan;21,0;22,9;24,8;15,2;17,8;17,1;17,3;16,8;-9,6;19,8;1553
2023-07-04 19:00:00;18,3;100472;75;0,0098;0,0;0,5;64;2,4;0,4;0,2;4;0;nan;21,0;22,9;24,8;15,2;17,7;17,1;17,3;16,8;-9,6;19,3;1562
2023-07-04 20:00:00;18,2;100458;72;0,0093;0,0;1,0;152;2,2;0,48;-0,89;0;0;nan;21,0;22,9;24,8;15,2;17,6;17,1;17,3;16,7;-9,6;19,4;1561
2023-07-04 21:00:00;17,4;100346;77;0,0095;0,0;1,8;139;3,6;1,17;-1,36;0;0;nan;21,0;22,9;24,8;15,3;17,6;17,2;17,3;16,7;-9,6;19,5;1560
2023-07-04 22:00:00;16,6;100260;83;0,0098;0,0;1,0;119;2,6;0,92;-0,51;0;0;nan;20,9;22,9;24,9;15,2;17,5;17,2;17,3;16,8;-9,6;19,4;1561
2023-07-04 23:00:00;16,6;100066;82;0,0096;0,0;2,7;129;5,1;2,11;-1,74;0;0;nan;20,9;22,9;24,9;15,2;17,4;17,2;17,2;16,8;-9,6;19,2;1565
2023-07-05 00:00:00;16,0;99995;85;0,0097;1,08;2,7;172;5,6;0,34;-2,52;0;0;nan;20,9;22,9;24,9;15,3;17,4;17,2;17,2;16,8;-9,6;19,0;1570
2023-07-05 01:00:00;15,2;99878;95;0,0102;2,56;2,0;173;4,3;0,26;-1,97;0;0;nan;21,0;22,9;24,8;15,3;17,3;17,2;17,2;16,8;-9,6;18,8;1575
2023-07-05 02:00:00;16,2;99730;95;0,0109;0,0;2,8;181;5,9;-0,05;-2,81;0;0;nan;21,3;23,1;24,9;15,3;17,3;17,1;17,1;16,8;-9,6;18,7;1578
2023-07-05 03:00:00;16,6;99720;93;0,011;0,0;4,6;234;10,5;-3,51;-2,55;1;0;nan;21,5;23,2;24,9;15,3;17,2;17,1;17,1;16,8;-9,6;18,3;1586
2023-07-05 04:00:00;14,8;99825;86;0,0091;0,0;5,2;244;10,7;-4,68;-2,24;12;0;nan;21,6;23,3;25,0;15,3;17,1;17,1;17,0;16,8;-9,6;18,2;1589
2023-07-05 05:00:00;14,4;99840;86;0,0088;0,0;4,7;235;9,6;-3,86;-2,72;149;0;nan;21,6;23,3;25,0;15,3;17,0;17,1;17,0;16,8;-9,6;18,3;1585
2023-07-05 06:00:00;14,8;99842;81;0,0085;0,0;5,6;234;12,5;-4,53;-3,31;171;0;nan;21,6;23,3;25,0;15,3;16,9;17,1;16,9;16,8;-9,6;18,4;1583
2023-07-05 07:00:00;14,4;99872;80;0,0082;0,0;5,5;234;11,8;-4,45;-3,2;112;0;nan;21,6;23,3;25,1;15,3;16,8;17,1;16,8;16,8;-9,6;18,3;1586
2023-07-05 08:00:00;14,8;99927;77;0,0081;0,0;6,5;241;12,7;-5,7;-3,1;141;0;nan;21,5;23,3;25,1;15,3;16,7;17,0;16,8;16,7;-9,6;18,3;1585
2023-07-05 09:00:00;15,0;100023;76;0,0081;0,0;6,3;242;12,1;-5,58;-2,96;178;0;nan;21,4;23,2;25,0;15,3;16,6;17,0;16,7;16,8;-9,6;18,3;1587
2023-07-05 10:00:00;17,0;100100;72;0,0086;0,0;7,7;257;12,3;-7,48;-1,67;559;0;nan;21,4;23,2;25,0;15,3;16,6;17,1;16,7;16,8;-9,6;18,3;1586
2023-07-05 11:00:00;18,2;100183;64;0,0083;0,0;8,5;255;16,7;-8,19;-2,16;604;0;nan;21,2;23,1;24,9;15,3;16,7;17,0;16,7;16,8;-9,6;18,2;1589
2023-07-05 12:00:00;18,0;100250;61;0,0078;0,0;7,5;266;13,3;-7,5;-0,58;270;0;nan;21,1;22,9;24,8;15,3;16,9;16,9;16,7;16,8;-9,6;18,3;1586
2023-07-05 13:00:00;18,9;100353;59;0,008;0,0;7,8;260;14,4;-7,71;-1,29;536;0;nan;20,9;22,8;24,7;15,3;17,0;16,9;16,7;16,7;-9,6;18,2;1588
2023-07-05 14:00:00;16,8;100455;71;0,0085;0,0;4,7;299;10,1;-3,92;2,22;316;0;nan;20,8;22,7;24,6;15,3;17,1;16,9;16,8;16,7;-9,6;18,3;1586
2023-07-05 15:00:00;17,2;100537;79;0,0096;0,0;3,5;328;6,6;-1,76;2,84;403;0;nan;20,7;22,6;24,5;15,3;17,1;16,9;16,8;16,7;-9,6;18,3;1586
2023-07-05 16:00:00;17,2;100590;81;0,0099;0,0;2,8;327;6,5;-1,54;2,4;364;0;nan;20,6;22,5;24,5;15,3;17,2;16,9;16,8;16,7;-9,6;18,1;1591
2023-07-05 17:00:00;17,7;100620;76;0,0095;0,0;2,0;302;5,1;-1,74;1,07;219;1;27;20,5;22,5;24,4;15,3;17,2;16,9;16,9;16,7;-9,7;18,1;1590
2023-07-05 18:00:00;17,1;100674;79;0,0095;0,0;2,0;257;5,2;-1,93;-0,44;57;1;17;20,5;22,5;24,4;15,3;17,3;16,9;16,9;16,7;-9,7;18,2;1589
2023-07-05 19:00:00;14,0;100780;92;0,0091;0,85;1,7;292;4,5;-1,37;0,55;41;0;nan;20,5;22,5;24,4;15,3;17,2;16,9;16,9;16,7;-9,7;18,4;1583
2023-07-05 20:00:00;14,1;100870;90;0,0089;0,07;2,1;252;4,2;-2,0;-0,66;1;0;nan;20,5;22,4;24,4;15,3;17,1;16,9;16,9;16,7;-9,7;18,4;1583
2023-07-05 21:00:00;13,4;100880;95;0,0091;0,09;1,3;253;2,2;-1,23;-0,38;0;0;nan;20,5;22,4;24,4;15,3;17,0;16,9;16,9;16,7;-9,7;18,5;1582
2023-07-05 22:00:00;13,0;100866;97;0,009;0,04;1,4;234;2,7;-1,12;-0,82;0;0;nan;20,5;22,5;24,4;15,3;16,9;16,9;16,8;16,7;-9,7;18,4;1584
2023-07-05 23:00:00;12,7;100873;97;0,0088;0,02;1,3;236;2,5;-1,11;-0,74;0;0;nan;20,5;22,4;24,4;15,3;16,8;16,9;16,8;16,7;-9,7;18,6;1579
2023-07-06 00:00:00;12,7;100900;98;0,0089;0,02;1,6;237;3,1;-1,34;-0,86;0;0;nan;20,4;22,4;24,4;15,3;16,7;16,9;16,7;16,7;-9,7;18,7;1576
2023-07-06 01:00:00;12,3;100940;98;0,0087;0,03;1,4;226;3,4;-1,04;-1,01;0;0;nan;20,4;22,4;24,4;15,3;16,6;16,9;16,7;16,6;-9,7;19,0;1569
2023-07-06 02:00:00;12,0;100950;99;0,0086;0,02;1,2;226;2,6;-0,9;-0,86;0;0;nan;20,4;22,4;24,4;15,3;16,5;16,9;16,6;16,6;-9,7;18,9;1572
2023-07-06 03:00:00;11,7;100947;99;0,0084;0,04;1,3;230;2,7;-0,98;-0,81;1;0;nan;20,4;22,4;24,4;15,3;16,4;16,8;16,6;16,6;-9,7;19,0;1570
2023-07-06 04:00:00;11,8;100987;99;0,0085;0,0;1,6;233;3,1;-1,27;-0,97;34;0;nan;20,4;22,4;24,4;15,3;16,4;16,8;16,5;16,6;-9,7;19,4;1562
2023-07-06 05:00:00;12,2;100990;100;0,0088;0,02;2,2;237;4,4;-1,87;-1,21;94;0;nan;20,4;22,4;24,4;15,3;16,4;16,8;16,5;16,6;-9,7;19,2;1565
2023-07-06 06:00:00;12,7;101000;99;0,009;0,0;2,7;240;5,6;-2,31;-1,34;142;0;nan;20,4;22,4;24,4;15,3;16,4;16,7;16,4;16,6;-9,7;19,1;1568
2023-07-06 07:00:00;14,6;101067;99;0,0102;0,0;2,5;241;5,0;-2,22;-1,24;395;0;nan;20,4;22,4;24,4;15,3;16,5;16,7;16,4;16,6;-9,7;19,3;1563
2023-07-06 08:00:00;16,2;101110;94;0,0108;0,0;2,7;237;4,8;-2,29;-1,46;493;0;nan;20,4;22,4;24,4;15,3;16,7;16,7;16,5;16,6;-9,7;19,4;1561
2023-07-06 09:00:00;17,3;101128;89;0,0109;0,0;3,3;240;6,2;-2,85;-1,66;509;0;nan;20,3;22,3;24,3;15,3;17,0;16,7;16,5;16,6;-9,7;19,7;1554
2023-07-06 10:00:00;18,8;101135;80;0,0106;0,0;3,0;252;5,9;-2,73;-0,9;606;0;nan;20,2;22,2;24,2;15,3;17,3;16,7;16,6;16,6;-9,7;19,4;1561
2023-07-06 11:00:00;19,1;101157;74;0,0101;0,0;3,1;256;6,3;-3,02;-0,76;542;0;nan;20,1;22,1;24,1;15,3;17,5;16,7;16,8;16,6;-9,8;19,3;1563
2023-07-06 12:00:00;20,1;101180;69;0,01;0,0;3,2;264;6,2;-3,14;-0,34;623;0;nan;19,9;22,0;24,0;15,3;17,8;16,7;16,9;16,6;-9,8;19,1;1567
2023-07-06 13:00:00;20,8;101165;62;0,0095;0,0;3,0;251;6,5;-2,86;-0,98;624;0;nan;19,8;21,8;23,9;15,3;18,0;16,7;17,0;16,6;-9,8;19,1;1567
2023-07-06 14:00:00;21,4;101160;57;0,0089;0,0;2,6;247;5,5;-2,42;-1,04;540;0;nan;19,6;21,7;23,8;15,3;18,2;16,8;17,2;16,5;-9,8;18,9;1571
2023-07-06 15:00:00;21,1;101150;56;0,0086;0,0;2,2;253;5,6;-2,16;-0,64;238;0;nan;19,5;21,6;23,7;15,3;18,2;16,8;17,3;16,5;-9,8;18,7;1577
2023-07-06 16:00:00;21,2;101135;59;0,0092;0,0;1,7;286;3,8;-1,49;0,42;253;0;nan;19,4;21,5;23,6;15,3;18,2;16,9;17,4;16,5;-9,8;18,6;1579
2023-07-06 17:00:00;21,0;101140;63;0,0096;0,0;1,0;319;2,7;-0,57;0,65;205;0;nan;19,4;21,5;23,6;15,3;18,1;17,0;17,4;16,5;-9,9;18,5;1581
2023-07-06 18:00:00;20,9;101160;61;0,0092;0,0;0,9;276;2,0;-0,86;0,09;90;0;nan;19,3;21,4;23,5;15,3;18,1;17,0;17,4;16,5;-9,9;18,3;1586
2023-07-06 19:00:00;19,6;101197;74;0,0104;0,0;0,5;5;0,9;0,02;0,21;59;0;nan;19,3;21,4;23,5;15,3;18,0;17,0;17,4;16,5;-9,9;18,1;1589
2023-07-06 20:00:00;18,0;101240;78;0,0099;0,0;0,4;258;0,9;-0,44;-0,09;5;0;nan;19,3;21,4;23,5;15,3;17,8;17,1;17,4;16,5;-9,9;17,9;1595
2023-07-06 21:00:00;15,9;101293;85;0,0095;0,0;0,5;258;1,0;-0,44;-0,09;0;0;nan;19,2;21,4;23,6;15,3;17,5;17,1;17,3;16,5;-9,9;17,6;1602
2023-07-06 22:00:00;14,3;101315;92;0,0092;0,0;0,4;128;0,7;0,33;-0,26;0;0;nan;19,2;21,4;23,5;15,3;17,2;17,1;17,2;16,6;-9,9;17,5;1605
2023-07-06 23:00:00;13,5;101333;95;0,0091;0,0;0,3;170;0,6;0,03;-0,15;0;0;nan;19,2;21,4;23,5;15,3;16,9;17,1;17,0;16,6;-9,9;17,6;1603
2023-07-07 00:00:00;13,2;101340;95;0,0089;0,0;0,3;126;0,5;0,22;-0,16;0;0;nan;19,2;21,4;23,5;15,3;16,6;17,1;16,9;16,6;-9,9;17,3;1609
2023-07-07 01:00:00;12,6;101340;98;0,0088;0,0;0,3;167;0,6;0,07;-0,3;0;0;nan;19,2;21,4;23,5;15,3;16,4;17,0;16,7;16,6;-9,9;16,9;1619
2023-07-07 02:00:00;11,6;101330;99;0,0083;0,0;0,3;182;0,5;-0,01;-0,29;0;0;nan;19,2;21,4;23,5;15,3;16,2;17,0;16,6;16,6;-9,9;16,9;1619
2023-07-07 03:00:00;11,1;101330;98;0,008;0,0;0,3;238;0,5;-0,22;-0,14;1;0;nan;19,2;21,4;23,5;15,3;16,0;16,9;16,5;16,6;-9,9;16,7;1624
2023-07-07 04:00:00;11,4;101375;100;0,0083;0,02;0,3;137;0,8;0,24;-0,25;58;0;nan;19,2;21,4;23,5;15,3;15,9;16,9;16,3;16,6;-10,0;16,5;1629
2023-07-07 05:00:00;14,1;101370;100;0,0099;0,0;0,6;125;1,1;0,48;-0,33;174;0;nan;19,2;21,3;23,5;15,3;15,9;16,8;16,2;16,6;-9,9;16,2;1637
2023-07-07 06:00:00;16,8;101370;94;0,0111;0,0;0,7;113;1,5;0,67;-0,28;252;0;nan;19,2;21,3;23,5;15,3;16,1;16,7;16,2;16,6;-9,9;16,2;1639
2023-07-07 07:00:00;20,5;101385;73;0,0108;0,0;1,3;132;2,9;0,94;-0,86;408;0;nan;19,2;21,3;23,5;15,3;16,4;16,7;16,3;16,6;-10,0;16,1;1640
2023-07-07 08:00:00;22,4;101430;61;0,0102;0,0;1,5;113;3,5;1,36;-0,59;531;0;nan;19,1;21,2;23,4;15,3;16,8;16,6;16,3;16,6;-10,0;16,0;1644
2023-07-07 09:00:00;23,6;101420;54;0,0097;0,0;1,8;122;4,1;1,56;-0,99;614;0;nan;18,9;21,1;23,3;15,3;17,2;16,6;16,5;16,6;-10,0;15,6;1653
2023-07-07 10:00:00;24,2;101400;51;0,0095;0,0;1,9;145;5,1;1,08;-1,55;679;0;nan;18,7;20,9;23,1;15,3;17,7;16,6;16,7;16,6;-10,0;15,7;1651
2023-07-07 11:00:00;24,8;101390;48;0,0092;0,0;1,7;197;4,4;-0,48;-1,6;707;0;nan;18,5;20,7;22,9;15,3;18,2;16,7;16,9;16,5;-10,1;15,5;1656
2023-07-07 12:00:00;25,5;101360;46;0,0092;0,0;1,7;172;4,3;0,18;-1,32;701;0;nan;18,3;20,5;22,8;15,3;18,7;16,7;17,1;16,5;-10,1;15,5;1658
2023-07-07 13:00:00;26,1;101320;45;0,0094;0,0;1,6;152;3,9;0,72;-1,38;701;0;nan;18,0;20,3;22,6;15,3;19,0;16,8;17,4;16,5;-10,1;15,4;1659
2023-07-07 14:00:00;26,5;101320;45;0,0096;0,0;1,2;124;4,2;1,03;-0,69;650;0;nan;17,8;20,1;22,4;15,3;19,1;16,9;17,6;16,5;-10,2;15,5;1657
2023-07-07 15:00:00;26,8;101280;44;0,0096;0,0;2,2;107;5,4;2,1;-0,65;577;0;nan;17,6;20,0;22,3;15,3;19,1;17,0;17,8;16,5;-10,2;15,4;1661
2023-07-07 16:00:00;26,9;101240;44;0,0095;0,0;1,7;108;4,7;1,6;-0,51;432;0;nan;17,5;19,9;22,2;15,3;19,1;17,0;17,8;16,5;-10,3;15,4;1660
2023-07-07 17:00:00;26,4;101187;45;0,0096;0,0;2,1;79;4,8;2,08;0,41;236;0;nan;17,4;19,8;22,1;15,3;19,0;17,1;17,9;16,5;-10,3;15,4;1660
2023-07-07 18:00:00;25,5;101170;47;0,0095;0,0;1,9;83;4,1;1,86;0,24;130;0;nan;17,3;19,7;22,1;15,3;18,8;17,2;17,9;16,5;-10,3;15,3;1663
2023-07-07 19:00:00;24,3;101180;52;0,0097;0,0;1,2;64;2,5;1,04;0,5;59;0;nan;17,3;19,7;22,1;15,3;18,7;17,3;17,9;16,5;-10,3;15,3;1662
2023-07-07 20:00:00;21,5;101190;60;0,0095;0,0;1,0;63;2,1;0,88;0,46;4;0;nan;17,3;19,7;22,1;15,3;18,5;17,3;17,9;16,5;-10,3;15,3;1663
2023-07-07 21:00:00;20,0;101220;64;0,0092;0,0;1,2;83;2,4;1,22;0,16;0;0;nan;17,3;19,7;22,1;15,3;18,2;17,3;17,8;16,6;-10,4;15,4;1660
2023-07-07 22:00:00;19,4;101210;65;0,009;0,0;1,5;90;3,3;1,53;0,0;0;0;nan;17,3;19,7;22,1;15,3;18,0;17,4;17,7;16,6;-10,4;15,2;1665
2023-07-07 23:00:00;19,5;101187;63;0,0088;0,0;1,5;88;3,0;1,54;0,06;0;0;nan;17,3;19,7;22,1;15,3;17,8;17,4;17,6;16,6;-10,4;15,0;1672
2023-07-08 00:00:00;19,5;101170;63;0,0088;0,0;2,2;87;4,1;2,19;0,11;0;0;nan;17,3;19,7;22,1;15,3;17,7;17,3;17,5;16,6;-10,4;15,1;1668
2023-07-08 01:00:00;18,8;101125;66;0,0088;0,0;1,9;90;4,5;1,94;0,01;0;0;nan;17,3;19,7;22,1;15,3;17,6;17,3;17,4;16,6;-10,4;15,0;1670
2023-07-08 02:00:00;18,1;101060;70;0,0089;0,0;1,9;89;3,4;1,87;0,04;0;0;nan;17,3;19,7;22,1;15,3;17,5;17,3;17,4;16,6;-10,4;15,1;1668
2023-07-08 03:00:00;17,8;101017;71;0,0089;0,0;2,3;95;3,9;2,29;-0,21;1;0;nan;17,3;19,7;22,1;15,3;17,4;17,3;17,3;16,7;-10,4;15,1;1668
2023-07-08 04:00:00;17,8;101020;72;0,0091;0,0;1,8;102;3,4;1,78;-0,37;36;0;nan;17,3;19,7;22,1;15,3;17,4;17,3;17,2;16,7;-10,4;14,9;1674